Billings, MT

11:06 AM MDT on April 27, 2017 (GMT -0600)
Billings Logan International

Weather History for KBIL - April, 2013

Change the Weather History Date:

Saturday, April 13, 2013

  Actual Average Record
Temperature  
Mean Temperature 42 °F 45 °F  
Max Temperature 50 °F 57 °F 80 °F (2017)
Min Temperature 34 °F 34 °F 15 °F (1986)
Degree Days  
Heating Degree Days 23 20  
Month to date heating degree days 297 278  
Since 1 July heating degree days 5700 6088  
Cooling Degree Days 0 0  
Month to date cooling degree days 0 0  
Year to date cooling degree days 0 0  
Moisture  
Dew Point 30 °F    
Average Humidity 71    
Maximum Humidity 92    
Minimum Humidity 50    
Precipitation  
Precipitation 0.12 in 0.05 in 0.49 in (1969)
Month to date precipitation 0.72 0.66  
Year to date precipitation 1.86 2.68  
Snow  
Snow T in 0.30 in 4.40 in (1991)
Month to date snowfall 3.1 4.2  
Since 1 July snowfall 37.9 48.9  
Snow Depth 0.00 in    
Sea Level Pressure  
Sea Level Pressure 29.50 in    
Wind  
Wind Speed 11 mph (NW)    
Max Wind Speed 35 mph    
Max Gust Speed 46 mph    
Visibility 9 miles    
Events Rain , Snow    
T = Trace of Precipitation, MM = Missing Value Source: NWS Daily Summary

Daily Weather History Graph

Daily Weather History Graph

Search for Another Location

Airport or City:

Trip Planner

Search our weather history database for the weather conditions in past years. The results will help you decide how hot, cold, wet, or windy it might be!

Date:

Astronomy

Apr. 13, 2013 Rise Set
Actual Time 6:31 AM MDT 7:58 PM MDT
Civil Twilight 6:00 AM MDT 8:29 PM MDT
Nautical Twilight 5:22 AM MDT 9:07 PM MDT
Astronomical Twilight 4:42 AM MDT 9:47 PM MDT
Moon 8:16 AM MDT (4/13) 11:34 PM MDT (4/13)
Length of Visible Light 14h 29m
Length of Day
13h 27m
Waxing Crescent, 11% of the Moon is Illuminated
Apr 13
Waxing Crescent
Apr 18
First Quarter
Apr 25
Full
May 2
Last Quarter
May 9
New

Hourly Weather History & Observations

Time (MDT) Temp. Windchill Dew Point Humidity Pressure Visibility Wind Dir Wind Speed Gust Speed Precip Events Conditions
12:53 AM 37.9 °F 31.5 °F 23.0 °F 55% 29.68 in 10.0 mi SSE 9.2 mph - N/A   Clear
1:53 AM 36.0 °F 32.1 °F 24.1 °F 62% 29.64 in 10.0 mi South 4.6 mph - N/A   Clear
2:53 AM 37.0 °F 33.3 °F 24.1 °F 59% 29.61 in 10.0 mi South 4.6 mph - N/A   Overcast
3:53 AM 36.0 °F 29.0 °F 25.0 °F 64% 29.57 in 10.0 mi NNW 9.2 mph - N/A   Overcast
4:53 AM 35.1 °F 29.3 °F 26.1 °F 70% 29.57 in 10.0 mi North 6.9 mph - N/A   Overcast
5:53 AM 36.0 °F 31.1 °F 26.1 °F 67% 29.54 in 10.0 mi North 5.8 mph - N/A   Overcast
6:53 AM 36.0 °F 33.3 °F 26.1 °F 67% 29.53 in 10.0 mi NNW 3.5 mph - N/A   Overcast
7:53 AM 37.0 °F - 26.1 °F 65% 29.50 in 10.0 mi Calm Calm - N/A   Overcast
8:53 AM 39.0 °F - 27.0 °F 62% 29.48 in 10.0 mi Calm Calm - N/A   Overcast
9:53 AM 41.0 °F - 28.0 °F 60% 29.46 in 10.0 mi Calm Calm - N/A   Overcast
10:53 AM 41.0 °F 38.0 °F 28.9 °F 62% 29.44 in 10.0 mi East 4.6 mph - 0.00 in Rain Light Rain
11:53 AM 46.0 °F 40.6 °F 30.0 °F 54% 29.39 in 10.0 mi ENE 11.5 mph - 0.00 in   Mostly Cloudy
12:53 PM 48.0 °F - 30.9 °F 52% 29.40 in 10.0 mi North 19.6 mph 25.3 mph N/A   Mostly Cloudy
1:03 PM 45.0 °F 35.6 °F 32.0 °F 60% 29.39 in 10.0 mi NNW 27.6 mph 34.5 mph N/A   Mostly Cloudy
1:46 PM 37.9 °F 25.9 °F 36.0 °F 93% 29.41 in 6.0 mi NW 28.8 mph - 0.03 in Rain Light Rain
1:53 PM 37.9 °F 26.6 °F 35.1 °F 89% 29.45 in 7.0 mi NW 25.3 mph - 0.03 in Rain Light Rain
2:26 PM 37.9 °F 27.1 °F 35.1 °F 89% 29.41 in 10.0 mi NNW 23.0 mph 28.8 mph 0.02 in Rain Light Rain
2:53 PM 36.0 °F 25.6 °F 34.0 °F 93% 29.46 in 5.0 mi NNW 18.4 mph - 0.04 in Rain Rain
3:33 PM 36.0 °F 28.5 °F 35.1 °F 97% 29.40 in 10.0 mi East 10.4 mph - 0.04 in   Mostly Cloudy
3:53 PM 37.0 °F 32.4 °F 35.1 °F 93% 29.47 in 10.0 mi South 5.8 mph - 0.04 in   Mostly Cloudy
4:53 PM 37.0 °F 31.0 °F 35.1 °F 93% 29.47 in 10.0 mi SSW 8.1 mph - N/A   Mostly Cloudy
5:08 PM 37.0 °F - 35.1 °F 93% 29.42 in 10.0 mi Calm Calm - N/A   Overcast
5:20 PM 37.9 °F 35.5 °F 35.1 °F 89% 29.42 in 10.0 mi SSW 3.5 mph - N/A   Overcast
5:53 PM 37.9 °F - 35.1 °F 89% 29.48 in 10.0 mi Calm Calm - N/A   Scattered Clouds
6:24 PM 39.0 °F 34.0 °F 34.0 °F 82% 29.45 in 10.0 mi WSW 6.9 mph - N/A   Mostly Cloudy
6:34 PM 39.0 °F 34.0 °F 35.1 °F 86% 29.46 in 10.0 mi SW 6.9 mph - N/A   Mostly Cloudy
6:39 PM 39.9 °F 34.5 °F 35.1 °F 83% 29.46 in 10.0 mi SW 8.1 mph - N/A   Mostly Cloudy
6:53 PM 39.9 °F 33.9 °F 36.0 °F 86% 29.52 in 10.0 mi WSW 9.2 mph - N/A   Mostly Cloudy
7:20 PM 41.0 °F 34.7 °F 35.1 °F 79% 29.48 in 10.0 mi NW 10.4 mph - 0.00 in Rain Light Rain
7:35 PM 39.9 °F 34.5 °F 35.1 °F 83% 29.49 in 10.0 mi NNW 8.1 mph - 0.00 in Rain Light Rain
7:53 PM 39.0 °F 28.5 °F 34.0 °F 82% 29.55 in 10.0 mi WNW 23.0 mph 31.1 mph 0.00 in   Overcast
8:07 PM 34.0 °F 19.7 °F 30.9 °F 89% 29.50 in 1.2 mi WNW 33.4 mph 40.3 mph 0.00 in Snow Light Snow
8:11 PM 34.0 °F 19.7 °F 30.9 °F 89% 29.50 in 1.5 mi NW 33.4 mph 40.3 mph 0.00 in Snow Light Snow
8:18 PM 35.1 °F 21.8 °F 30.9 °F 85% 29.51 in 4.0 mi NW 29.9 mph 39.1 mph 0.00 in Snow Light Snow
8:53 PM 36.0 °F 22.8 °F 28.0 °F 73% 29.57 in 9.0 mi NW 31.1 mph 38.0 mph 0.01 in Snow Light Snow
9:53 PM 37.9 °F 29.2 °F 23.0 °F 55% 29.58 in 10.0 mi NW 15.0 mph - 0.00 in   Overcast
10:53 PM 37.0 °F 28.5 °F 21.9 °F 54% 29.62 in 10.0 mi WNW 13.8 mph - N/A   Overcast
11:53 PM 36.0 °F 25.0 °F 21.0 °F 55% 29.60 in 10.0 mi West 20.7 mph - N/A   Overcast